FW6797 Weather Reports


time (UTC)temp
C
wind
direction
speed
KPH
gust
KPH
rain 1hr
cm
rain 24hr
cm
rain mn
cm
humidity
%
barometer
mb
20260504001512 12 189 1.6 3.2 0.00 0.00 0.00 50 1012.0
20260504001008 12 185 1.6 3.2 0.00 0.00 0.00 50 1012.1
20260504000511 12 184 1.6 4.8 0.00 0.00 0.00 50 1012.1
20260504000017 12 184 1.6 4.8 0.00 0.00 0.00 47 1012.0
20260503235507 12 194 1.6 4.8 0.00 0.00 0.00 49 1012.2
20260503235007 12 195 1.6 4.8 0.00 0.00 0.00 49 1012.2
20260503234526 12 200 1.6 4.8 0.00 0.00 0.00 48 1012.3
20260503234011 13 184 1.6 6.4 0.00 0.00 0.00 49 1012.3
20260503233509 13 192 3.2 6.4 0.00 0.00 0.00 48 1012.4
20260503233004 13 175 1.6 6.4 0.00 0.00 0.00 47 1012.3
20260503232503 13 196 3.2 8.0 0.00 0.00 0.00 47 1012.3
20260503232007 13 215 3.2 8.0 0.00 0.00 0.00 47 1012.4
20260503231511 13 189 4.8 8.0 0.00 0.00 0.00 45 1012.4
20260503231005 13 205 3.2 8.0 0.00 0.00 0.00 45 1012.5
20260503230507 13 176 3.2 8.0 0.00 0.00 0.00 45 1012.5
20260503230014 13 198 4.8 11.3 0.00 0.00 0.00 44 1012.5
20260503225511 13 169 4.8 11.3 0.00 0.00 0.00 44 1012.5
20260503225008 13 164 4.8 8.0 0.00 0.00 0.00 45 1012.5
20260503224519 13 192 4.8 8.0 0.00 0.00 0.00 44 1012.7
20260503224009 13 185 1.6 8.0 0.00 0.00 0.00 44 1012.6
20260503223511 14 212 3.2 8.0 0.00 0.00 0.00 43 1012.6
20260503223021 13 190 3.2 8.0 0.00 0.00 0.00 43 1012.7
20260503222509 13 187 3.2 11.3 0.00 0.00 0.00 45 1012.7
20260503222009 13 203 6.4 11.3 0.00 0.00 0.00 43 1012.8
20260503221506 13 178 3.2 8.0 0.00 0.00 0.00 46 1012.7
20260503221007 14 170 4.8 11.3 0.00 0.00 0.00 45 1012.8
20260503220506 14 194 6.4 11.3 0.00 0.00 0.00 43 1012.8
20260503220012 14 205 4.8 12.9 0.00 0.00 0.00 44 1012.8
20260503215507 14 195 4.8 11.3 0.00 0.00 0.00 41 1012.8
20260503215011 14 196 4.8 9.7 0.00 0.00 0.00 44 1012.8
20260503214516 14 290 0.0 11.3 0.00 0.00 0.00 46 1012.9
20260503214007 14 213 4.8 11.3 0.00 0.00 0.00 42 1012.8
20260503213506 14 196 4.8 11.3 0.00 0.00 0.00 44 1012.8
20260503213022 14 159 4.8 11.3 0.00 0.00 0.00 46 1012.8
20260503212508 15 169 3.2 9.7 0.00 0.00 0.00 43 1012.8
20260503212010 15 187 3.2 9.7 0.00 0.00 0.00 43 1012.8
20260503211532 15 131 4.8 9.7 0.00 0.00 0.00 41 1012.8
20260503211008 15 159 1.6 6.4 0.00 0.00 0.00 43 1012.9
20260503210506 15 259 1.6 6.4 0.00 0.00 0.00 43 1012.9
20260503210015 15 260 1.6 12.9 0.00 0.00 0.00 43 1012.9
20260503205503 15 305 1.6 12.9 0.00 0.00 0.00 42 1012.9
20260503205008 15 181 1.6 9.7 0.00 0.00 0.00 45 1012.9
20260503204518 15 150 0.0 9.7 0.00 0.00 0.00 45 1012.9
20260503204008 15 175 3.2 9.7 0.00 0.00 0.00 45 1012.8
20260503203507 15 184 4.8 9.7 0.00 0.00 0.00 41 1012.9
20260503203020 15 260 3.2 12.9 0.00 0.00 0.00 44 1012.9
20260503202507 15 217 6.4 12.9 0.00 0.00 0.00 39 1012.9
20260503202011 15 188 6.4 14.5 0.00 0.00 0.00 39 1013.1
20260503201523 15 277 0.0 14.5 0.00 0.00 0.00 44 1013.0
20260503201008 14 180 4.8 12.9 0.00 0.00 0.00 43 1013.1
20260503200510 14 236 4.8 12.9 0.00 0.00 0.00 39 1013.2
20260503200026 14 165 1.6 11.3 0.00 0.00 0.00 42 1013.3
20260503195510 15 172 6.4 11.3 0.00 0.00 0.00 40 1013.4
20260503195011 15 203 3.2 9.7 0.00 0.00 0.00 42 1013.4
20260503194513 15 202 3.2 16.1 0.00 0.00 0.00 42 1013.5
20260503194006 15 248 1.6 16.1 0.00 0.00 0.00 42 1013.7
20260503193506 15 236 3.2 8.0 0.00 0.00 0.00 1013.7
20260503193017 14 212 1.6 14.5 0.00 0.00 0.00 42 1013.9
20260503192508 15 171 4.8 14.5 0.00 0.00 0.00 42 1013.9
20260503192007 14 254 1.6 14.5 0.00 0.00 0.00 46 1014.1
20260503191521 14 198 4.8 12.9 0.00 0.00 0.00 44 1014.3
20260503191009 15 196 3.2 9.7 0.00 0.00 0.00 44 1014.3
20260503190508 14 176 3.2 8.0 0.00 0.00 0.00 46 1014.4
20260503190040 14 255 3.2 12.9 0.00 0.00 0.00 44 1014.5
20260503185507 14 252 4.8 12.9 0.00 0.00 0.00 43 1014.5
20260503185012 14 181 4.8 9.7 0.00 0.00 0.00 43 1014.5
20260503184526 14 181 4.8 9.7 0.00 0.00 0.00 43 1014.6
20260503184009 14 196 6.4 11.3 0.00 0.00 0.00 42 1014.6
20260503183510 14 174 6.4 12.9 0.00 0.00 0.00 42 1014.7
20260503183016 14 227 3.2 12.9 0.00 0.00 0.00 42 1014.7
20260503182509 15 181 4.8 11.3 0.00 0.00 0.00 41 1014.8
20260503182010 14 189 3.2 9.7 0.00 0.00 0.00 41 1014.9
20260503181521 15 225 3.2 9.7 0.00 0.00 0.00 43 1014.9
20260503181009 15 276 3.2 9.7 0.00 0.00 0.00 40 1014.9
20260503180509 14 294 1.6 8.0 0.00 0.00 0.00 45 1014.9
20260503180036 14 272 3.2 11.3 0.00 0.00 0.00 41 1015.0
20260503175508 15 190 4.8 11.3 0.00 0.00 0.00 42 1015.0
20260503175006 15 246 3.2 9.7 0.00 0.00 0.00 42 1015.0
20260503174524 15 244 3.2 9.7 0.00 0.00 0.00 40 1015.0
20260503174007 15 162 4.8 9.7 0.00 0.00 0.00 42 1015.0
20260503173508 15 182 3.2 8.0 0.00 0.00 0.00 44 1015.2
20260503173028 15 276 1.6 8.0 0.00 0.00 0.00 45 1015.2
20260503172514 15 242 1.6 9.7 0.00 0.00 0.00 48 1015.3
20260503172006 14 186 4.8 9.7 0.00 0.00 0.00 43 1015.3
20260503171531 14 132 1.6 11.3 0.00 0.00 0.00 48 1015.4
20260503171006 14 238 3.2 11.3 0.00 0.00 0.00 45 1015.4
20260503170509 14 192 3.2 8.0 0.00 0.00 0.00 44 1015.5
20260503151010 11 214 4.8 11.3 0.00 0.00 0.00 48 1016.4
20260503150507 11 211 4.8 9.7 0.00 0.00 0.00 51 1016.4
20260503131005 7 200 3.2 4.8 0.00 0.00 0.00 61 1017.0
20260503130507 6 173 1.6 4.8 0.00 0.00 0.00 61 1017.0
20260503110511 1 203 0.0 0.0 0.00 0.00 0.00 79 1016.5
20260503090510 1 203 0.0 0.0 0.00 0.00 0.00 82 1016.1
20260503081538 1 203 0.0 0.0 0.00 0.00 0.00 83 1016.3
20260503081007 1 203 0.0 0.0 0.00 0.00 0.00 84 1016.3
20260503080507 1 203 0.0 0.0 0.00 0.00 0.00 84 1016.3
20260503072508 1 203 0.0 0.0 0.00 0.00 0.00 85 1016.3
20260503072013 1 203 0.0 0.0 0.00 0.00 0.00 84 1016.3
20260503071526 1 203 0.0 0.0 0.00 0.00 0.00 85 1016.3
20260503071010 1 203 0.0 0.0 0.00 0.00 0.00 85 1016.3
20260503070511 1 203 0.0 0.0 0.00 0.00 0.00 85 1016.2
20260503055012 2 203 0.0 0.0 0.00 0.00 0.00 83 1016.5
20260503054535 3 203 0.0 0.0 0.00 0.00 0.00 82 1016.5
20260503054008 3 203 0.0 0.0 0.00 0.00 0.00 82 1016.5
20260503053508 3 203 0.0 0.0 0.00 0.00 0.00 81 1016.4
20260503052509 3 203 0.0 0.0 0.00 0.00 0.00 80 1016.4
20260503052012 3 203 0.0 0.0 0.00 0.00 0.00 80 1016.4
20260503051010 3 203 0.0 0.0 0.00 0.00 0.00 79 1016.4
20260503050505 3 203 0.0 0.0 0.00 0.00 0.00 79 1016.4
20260503050011 3 203 0.0 0.0 0.00 0.00 0.00 79 1016.4
20260503045506 3 203 0.0 0.0 0.00 0.00 0.00 79 1016.4
20260503045008 3 203 0.0 0.0 0.00 0.00 0.00 78 1016.4
20260503044511 3 203 0.0 0.0 0.00 0.00 0.00 79 1016.5
20260503044007 3 203 0.0 0.0 0.00 0.00 0.00 79 1016.5
20260503043507 3 203 0.0 0.0 0.00 0.00 0.00 78 1016.5
20260503042507 4 203 0.0 0.0 0.00 0.00 0.00 78 1016.5
20260503042010 3 203 0.0 0.0 0.00 0.00 0.00 78 1016.6
20260503040510 4 219 0.0 0.0 0.00 0.00 0.00 78 1016.6
20260503040008 4 219 0.0 0.0 0.00 0.00 0.00 77 1016.6
20260503035505 3 219 0.0 0.0 0.00 0.00 0.00 77 1016.7
20260503035003 4 219 0.0 3.2 0.00 0.00 0.00 78 1016.6
20260503034512 3 230 0.0 3.2 0.00 0.00 0.00 78 1016.6
20260503034004 4 294 0.0 0.0 0.00 0.00 0.00 78 1016.7
20260503033508 4 294 0.0 0.0 0.00 0.00 0.00 78 1016.7
20260503033025 4 294 0.0 0.0 0.00 0.00 0.00 78 1016.7
20260503032510 4 294 0.0 0.0 0.00 0.00 0.00 78 1016.7
20260503032009 4 294 0.0 0.0 0.00 0.00 0.00 78 1016.8
20260503031008 3 294 0.0 0.0 0.00 0.00 0.00 77 1016.9
20260503030507 3 294 0.0 0.0 0.00 0.00 0.00 78 1016.9
20260503030025 4 294 0.0 0.0 0.00 0.00 0.00 78 1016.9
20260503025008 3 294 0.0 0.0 0.00 0.00 0.00 77 1017.0
20260503024008 3 294 0.0 0.0 0.00 0.00 0.00 77 1017.1
20260503023503 4 294 0.0 0.0 0.00 0.00 0.00 79 1017.0
20260503022504 4 294 0.0 0.0 0.00 0.00 0.00 79 1017.1
20260503022006 4 294 0.0 0.0 0.00 0.00 0.00 79 1017.1
20260503021525 4 294 0.0 0.0 0.00 0.00 0.00 78 1017.2
20260503021010 4 294 0.0 0.0 0.00 0.00 0.00 79 1017.2
20260503020508 4 294 0.0 0.0 0.00 0.00 0.00 77 1017.1
20260503020024 4 294 0.0 0.0 0.00 0.00 0.00 76 1017.1
20260503015509 4 294 0.0 0.0 0.00 0.00 0.00 76 1017.1
20260503012504 4 294 0.0 0.0 0.00 0.00 0.00 77 1017.0
20260503012006 4 294 0.0 0.0 0.00 0.00 0.00 76 1017.0
20260503011006 4 294 0.0 0.0 0.00 0.00 0.00 74 1017.0
20260503010511 4 294 0.0 0.0 0.00 0.00 0.00 73 1017.0
20260503005511 4 294 0.0 0.0 0.00 0.00 0.00 72 1016.8
20260503005011 4 294 0.0 0.0 0.00 0.00 0.00 73 1016.9